Regional Weather Roundup
Issued by NWS

Home | Current Version | Previous Version | Graphics & Text | Print | Product List | Glossary On
Versions: 1 2 3 4 5 6 7 8 9 10 11 12 13 14 15 16 17 18 19 20 21 22 23 24 25 26 27 28 29 30 31 32 33 34 35 36 37 38 39 40 41 42 43 44 45 46 47 48 49 50
000
ASUS45 KSLC 042110
RWRUT

UTAH REGIONAL WEATHER ROUNDUP
NATIONAL WEATHER SERVICE SALT LAKE CITY UT
300 PM MDT MON MAY 04 2015

UTZ001>011-023>025-042200-

NORTHERN UTAH

CITY           SKY/WX    TMP DP  RH WIND       PRES   REMARKS
BRIGHAM CITY   MOSUNNY   74  35  23 SW3       29.88F
DUGWAY         PTSUNNY   75  36  23 SE6       29.87F
HILL AFB       PTSUNNY   73  41  32 NW12      29.89F
LOGAN          MOSUNNY   74  40  29 VRB6      29.89F
OGDEN          PTSUNNY   73  40  30 NW8       29.88F
PROVO AIRPORT  PTSUNNY   70  39  32 SE8       29.90F
SALT LAKE CITY CLOUDY    76  40  27 NW10G18   29.86F THUNDER
VERNAL         PTSUNNY   69  35  28 SW5       29.93F
WENDOVER       PTSUNNY   75  36  23 E8        29.87F
HEBER CITY     CLOUDY    55  45  67 NW7       29.98S
WEST JORDAN    MOSUNNY   75  45  33 NW8G16    29.89F

$$

UTZ012>022-026-027-042200-

SOUTHERN/CENTRAL UTAH

CITY           SKY/WX    TMP DP  RH WIND       PRES   REMARKS
BLANDING       CLOUDY    69  35  28 S13       30.03F
BRYCE CANYON   CLOUDY    59  33  37 VRB5      30.03F
CEDAR CITY     CLOUDY    63  38  39 VRB6      29.93F
DELTA          MOSUNNY   72  33  24 SE5       29.87F
HANKSVILLE     PTSUNNY   70  43  37 N3        29.92F
MILFORD        PTSUNNY   73  39  29 S17G24    29.90F
MOAB/CYNLANDS  SUNNY     73  38  27 S7        29.88F
PRICE          MOSUNNY   70  37  29 SW8       29.96F
ST GEORGE      CLOUDY    73  41  31 NW5       29.88F
KANAB          CLOUDY    64  37  36 N6        29.97F

$$

REGIONAL REPORTS     COLORADO/ARIZONA

CITY           SKY/WX    TMP DP  RH WIND       PRES   REMARKS
CRAIG, CO      CLOUDY    60  39  45 S16       30.01F
GRAND JUNCTION PTSUNNY   70  38  31 W3        29.91F
RIFLE          PTSUNNY   67  40  37 VRB7      29.98F
MONTROSE       CLOUDY    66  37  34 SW12      30.00S
CORTEZ         MOSUNNY   69  37  30 SW17      29.96F
PAGE, AZ       CLOUDY    64  48  56 NE9       29.92F
GRAND CANYON   LGT RAIN  47  43  86 SW9       30.04F FOG
KINGMAN        CLOUDY    64  45  49 NE17      29.96S
FLAGSTAFF      PTSUNNY   58  35  42 S16G24    30.01F

$$

REGIONAL REPORTS    NEVADA/IDAHO/WYOMING

CITY           SKY/WX    TMP DP  RH WIND       PRES   REMARKS
LAS VEGAS, NV  CLOUDY    75  48  38 SE15G22   29.80F THUNDER
ELY            LGT RAIN  56  38  50 W26G35    30.01R
ELKO           CLOUDY    74  28  18 VRB3      29.88F
POCATELLO, ID  MOSUNNY   76  29  17 W7        29.90F
BURLEY         MOSUNNY   75  34  22 CALM      29.86F
EVANSTON, WY   CLOUDY    51  40  65 S10       30.05R
ROCK SPRINGS   PTSUNNY   62  34  35 CALM      30.01F
KEMMERER       CLOUDY    59  32  36 E7        30.05F

$$


USA.gov is the U.S. government's official web portal to all federal, state and local government web resources and services.